| time (UTC) | temp F | wind direction | speed MPH | gust MPH | rain 1hr in | rain 24hr in | rain mn in | humidity % | barometer mb |
| 20260505203735 | 68 | 249 | 9.0 | 10.0 | 0.00 | 0.00 | 0.00 | ||
| 20260505202236 | 66 | 243 | 7.0 | 10.0 | 0.00 | 0.00 | 0.00 | ||
| 20260505192240 | 64 | 255 | 9.0 | 14.0 | 0.00 | 0.00 | 0.00 | ||
| 20260505185242 | 63 | 321 | 7.0 | 4.0 | 0.00 | 0.00 | 0.00 | ||
| 20260505183742 | 62 | 280 | 8.0 | 7.0 | 0.00 | 0.00 | 0.00 | ||
| 20260505180744 | 60 | 290 | 5.0 | 1.0 | 0.00 | 0.00 | 0.00 | ||
| 20260505175245 | 60 | 305 | 4.0 | 1.0 | 0.00 | 0.00 | 0.00 | ||
| 20260505173746 | 57 | 271 | 6.0 | 6.0 | 0.00 | 0.00 | 0.00 | ||
| 20260505170748 | 54 | 222 | 4.0 | 2.0 | 0.00 | 0.00 | 0.00 | ||
| 20260505165249 | 53 | 270 | 7.0 | 4.0 | 0.00 | 0.00 | 0.00 | ||
| 20260505163750 | 55 | 240 | 7.0 | 5.0 | 0.00 | 0.00 | 0.00 | ||
| 20260505162252 | 58 | 325 | 7.0 | 5.0 | 0.00 | 0.00 | 0.00 | ||
| 20260505160752 | 60 | 257 | 7.0 | 5.0 | 0.00 | 0.00 | 0.00 | ||
| 20260505152255 | 59 | 253 | 9.0 | 5.0 | 0.00 | 0.00 | 0.00 | ||
| 20260505150756 | 59 | 271 | 10.0 | 9.0 | 0.00 | 0.00 | 0.00 | ||
| 20260505122308 | 49 | 274 | 1.0 | 1.0 | 0.00 | 0.00 | 0.00 | ||
| 20260505120809 | 50 | 277 | 3.0 | 3.0 | 0.00 | 0.00 | 0.00 | ||
| 20260505115310 | 52 | 283 | 2.0 | 3.0 | 0.00 | 0.00 | 0.00 | ||
| 20260505112313 | 51 | 297 | 2.0 | 3.0 | 0.00 | 0.00 | 0.00 | ||
| 20260505110813 | 51 | 231 | 2.0 | 2.0 | 0.00 | 0.00 | 0.00 | ||
| 20260505100817 | 53 | 260 | 0.0 | 0.0 | 0.00 | 0.00 | 0.00 | ||
| 20260505092323 | 56 | 332 | 4.0 | 3.0 | 0.00 | 0.00 | 0.00 | ||
| 20260505085323 | 57 | 256 | 2.0 | 1.0 | 0.00 | 0.00 | 0.00 | ||
| 20260505083824 | 57 | 262 | 8.0 | 8.0 | 0.00 | 0.00 | 0.00 | ||
| 20260505082325 | 57 | 259 | 6.0 | 11.0 | 0.00 | 0.00 | 0.00 | ||
| 20260505080825 | 58 | 274 | 6.0 | 4.0 | 0.00 | 0.00 | 0.00 | ||
| 20260505075326 | 57 | 267 | 5.0 | 7.0 | 0.00 | 0.00 | 0.00 | ||
| 20260505073827 | 59 | 271 | 7.0 | 5.0 | 0.00 | 0.00 | 0.00 | ||
| 20260505072328 | 59 | 280 | 6.0 | 4.0 | 0.00 | 0.00 | 0.00 | ||
| 20260505070829 | 59 | 269 | 5.0 | 8.0 | 0.00 | 0.00 | 0.00 | ||
| 20260505065329 | 59 | 267 | 2.0 | 5.0 | 0.00 | 0.00 | 0.00 | ||
| 20260505063830 | 60 | 273 | 4.0 | 6.0 | 0.00 | 0.00 | 0.00 | ||
| 20260505062331 | 60 | 278 | 6.0 | 6.0 | 0.00 | 0.00 | 0.00 | ||
| 20260505060832 | 60 | 239 | 3.0 | 1.0 | 0.00 | 0.00 | 0.00 | ||
| 20260505055332 | 61 | 255 | 5.0 | 4.0 | 0.00 | 0.00 | 0.00 | ||
| 20260505053833 | 61 | 273 | 7.0 | 4.0 | 0.00 | 0.00 | 0.00 | ||
| 20260505052334 | 61 | 245 | 8.0 | 7.0 | 0.00 | 0.00 | 0.00 | ||
| 20260505050837 | 62 | 291 | 8.0 | 8.0 | 0.00 | 0.00 | 0.00 | ||
| 20260505040838 | 64 | 283 | 5.0 | 5.0 | 0.00 | 0.00 | 0.00 | ||
| 20260505035339 | 65 | 342 | 6.0 | 5.0 | 0.00 | 0.00 | 0.00 | ||
| 20260505033839 | 66 | 316 | 4.0 | 6.0 | 0.00 | 0.00 | 0.00 | ||
| 20260505032340 | 67 | 270 | 6.0 | 7.0 | 0.00 | 0.00 | 0.00 | ||
| 20260505030841 | 66 | 256 | 5.0 | 4.0 | 0.00 | 0.00 | 0.00 | ||
| 20260505023842 | 65 | 298 | 1.0 | 0.0 | 0.00 | 0.00 | 0.00 | ||
| 20260505022343 | 66 | 245 | 4.0 | 3.0 | 0.00 | 0.00 | 0.00 | ||
| 20260505020843 | 66 | 314 | 6.0 | 5.0 | 0.00 | 0.00 | 0.00 | ||
| 20260505015344 | 66 | 300 | 4.0 | 4.0 | 0.00 | 0.00 | 0.00 | ||
| 20260505013845 | 66 | 260 | 5.0 | 4.0 | 0.00 | 0.00 | 0.00 | ||
| 20260505012345 | 66 | 309 | 6.0 | 8.0 | 0.00 | 0.00 | 0.00 | ||
| 20260505010846 | 68 | 295 | 6.0 | 7.0 | 0.00 | 0.00 | 0.00 | ||
| 20260505005346 | 68 | 298 | 7.0 | 9.0 | 0.00 | 0.00 | 0.00 | ||
| 20260505003847 | 70 | 330 | 9.0 | 6.0 | 0.00 | 0.00 | 0.00 | ||
| 20260505002347 | 70 | 293 | 9.0 | 10.0 | 0.00 | 0.00 | 0.00 | ||
| 20260505000848 | 72 | 291 | 8.0 | 5.0 | 0.00 | 0.00 | 0.00 | ||
| 20260504235348 | 71 | 287 | 9.0 | 13.0 | 0.00 | 0.00 | 0.00 | ||
| 20260504233849 | 72 | 325 | 7.0 | 4.0 | 0.00 | 0.00 | 0.00 | ||
| 20260504232349 | 74 | 318 | 8.0 | 8.0 | 0.00 | 0.00 | 0.00 | ||
| 20260504230850 | 73 | 274 | 6.0 | 13.0 | 0.00 | 0.00 | 0.00 | ||
| 20260504225350 | 74 | 304 | 10.0 | 7.0 | 0.00 | 0.00 | 0.00 | ||
| 20260504223851 | 76 | 305 | 7.0 | 2.0 | 0.00 | 0.00 | 0.00 | ||
| 20260504222351 | 73 | 314 | 10.0 | 10.0 | 0.00 | 0.00 | 0.00 | ||
| 20260504220851 | 74 | 284 | 9.0 | 8.0 | 0.00 | 0.00 | 0.00 | ||
| 20260504215352 | 75 | 285 | 7.0 | 7.0 | 0.00 | 0.00 | 0.00 | ||
| 20260504213852 | 75 | 280 | 10.0 | 12.0 | 0.00 | 0.00 | 0.00 | ||
| 20260504212353 | 73 | 328 | 8.0 | 5.0 | 0.00 | 0.00 | 0.00 | ||
| 20260504210853 | 73 | 290 | 9.0 | 10.0 | 0.00 | 0.00 | 0.00 | ||
| 20260504205354 | 72 | 287 | 6.0 | 5.0 | 0.00 | 0.00 | 0.00 |